| time (UTC) | temp F | wind direction | speed MPH | gust MPH | rain 1hr in | rain 24hr in | rain mn in | humidity % | barometer mb |
| 20260503040012 | 41 | 195 | 0.0 | 0.0 | 0.00 | 0.00 | 0.00 | 93 | 1019.1 |
| 20260503034511 | 40 | 195 | 0.0 | 0.0 | 0.00 | 0.00 | 0.00 | 93 | 1019.1 |
| 20260503033009 | 40 | 195 | 0.0 | 0.0 | 0.00 | 0.00 | 0.00 | 93 | 1019.1 |
| 20260503031508 | 41 | 195 | 0.0 | 0.0 | 0.00 | 0.00 | 0.00 | 93 | 1019.0 |
| 20260503030007 | 41 | 195 | 0.0 | 0.0 | 0.00 | 0.00 | 0.00 | 93 | 1018.9 |
| 20260503024505 | 41 | 195 | 0.0 | 1.0 | 0.00 | 0.00 | 0.00 | 93 | 1018.9 |
| 20260503023003 | 41 | 195 | 0.0 | 1.0 | 0.00 | 0.00 | 0.00 | 92 | 1019.0 |
| 20260503021503 | 42 | 195 | 0.0 | 0.0 | 0.00 | 0.00 | 0.00 | 92 | 1018.9 |
| 20260503020100 | 42 | 195 | 0.0 | 0.0 | 0.00 | 0.00 | 0.00 | 90 | 1018.8 |
| 20260503014610 | 43 | 195 | 0.0 | 0.0 | 0.00 | 0.00 | 0.00 | 90 | 1018.9 |
| 20260503013056 | 43 | 195 | 0.0 | 0.0 | 0.00 | 0.00 | 0.00 | 89 | 1018.9 |
| 20260503011600 | 43 | 196 | 0.0 | 0.0 | 0.00 | 0.00 | 0.00 | 90 | 1019.0 |
| 20260503010053 | 43 | 195 | 0.0 | 0.0 | 0.00 | 0.00 | 0.00 | 89 | 1019.0 |
| 20260503004551 | 44 | 195 | 0.0 | 0.0 | 0.00 | 0.00 | 0.00 | 89 | 1019.0 |
| 20260503003049 | 44 | 195 | 0.0 | 0.0 | 0.00 | 0.00 | 0.00 | 88 | 1019.1 |
| 20260503001557 | 44 | 195 | 0.0 | 0.0 | 0.00 | 0.00 | 0.00 | 86 | 1019.2 |
| 20260503000045 | 45 | 195 | 0.0 | 0.0 | 0.00 | 0.00 | 0.00 | 86 | 1019.2 |
| 20260502234545 | 45 | 195 | 0.0 | 1.0 | 0.00 | 0.00 | 0.00 | 85 | 1019.4 |
| 20260502233045 | 45 | 196 | 0.0 | 0.0 | 0.00 | 0.00 | 0.00 | 86 | 1019.5 |
| 20260502231539 | 45 | 195 | 0.0 | 0.0 | 0.00 | 0.00 | 0.00 | 84 | 1019.6 |
| 20260502230038 | 46 | 195 | 0.0 | 0.0 | 0.00 | 0.00 | 0.00 | 83 | 1019.6 |
| 20260502224535 | 46 | 195 | 0.0 | 0.0 | 0.00 | 0.00 | 0.00 | 83 | 1019.8 |
| 20260502223033 | 46 | 196 | 0.0 | 0.0 | 0.00 | 0.00 | 0.00 | 81 | 1019.8 |
| 20260502221539 | 47 | 195 | 0.0 | 0.0 | 0.00 | 0.00 | 0.00 | 81 | 1019.8 |
| 20260502220029 | 47 | 195 | 0.0 | 0.0 | 0.00 | 0.00 | 0.00 | 79 | 1020.0 |
| 20260502214528 | 48 | 195 | 0.0 | 1.0 | 0.00 | 0.00 | 0.00 | 79 | 1019.9 |
| 20260502213027 | 48 | 195 | 0.0 | 1.0 | 0.00 | 0.00 | 0.00 | 79 | 1020.0 |
| 20260502211527 | 48 | 195 | 0.0 | 0.0 | 0.00 | 0.00 | 0.00 | 77 | 1020.0 |
| 20260502210030 | 48 | 195 | 0.0 | 1.0 | 0.00 | 0.00 | 0.00 | 77 | 1020.2 |
| 20260502204528 | 49 | 195 | 0.0 | 0.0 | 0.00 | 0.00 | 0.00 | 75 | 1020.3 |
| 20260502203025 | 50 | 195 | 0.0 | 0.0 | 0.00 | 0.00 | 0.00 | 74 | 1020.4 |
| 20260502201525 | 51 | 195 | 0.0 | 0.0 | 0.00 | 0.00 | 0.00 | 70 | 1020.5 |
| 20260502200025 | 52 | 196 | 0.0 | 0.0 | 0.00 | 0.00 | 0.00 | 68 | 1020.4 |
| 20260502194523 | 52 | 195 | 0.0 | 0.0 | 0.00 | 0.00 | 0.00 | 68 | 1020.4 |
| 20260502193024 | 53 | 195 | 0.0 | 0.0 | 0.00 | 0.00 | 0.00 | 63 | 1020.4 |
| 20260502191523 | 54 | 195 | 0.0 | 0.0 | 0.00 | 0.00 | 0.00 | 62 | 1020.3 |
| 20260502190023 | 55 | 195 | 0.0 | 0.0 | 0.00 | 0.00 | 0.00 | 61 | 1020.2 |
| 20260502184533 | 56 | 196 | 0.0 | 1.0 | 0.00 | 0.00 | 0.00 | 58 | 1020.1 |
| 20260502183028 | 57 | 195 | 0.0 | 1.0 | 0.00 | 0.00 | 0.00 | 58 | 1019.9 |
| 20260502181521 | 59 | 195 | 0.0 | 1.0 | 0.00 | 0.00 | 0.00 | 56 | 1019.8 |
| 20260502163017 | 70 | 67 | 0.0 | 2.0 | 0.00 | 0.00 | 0.00 | 35 | 1019.8 |
| 20260502161514 | 71 | 163 | 0.0 | 5.0 | 0.00 | 0.00 | 0.00 | 36 | 1020.0 |
| 20260502151510 | 75 | 3 | 2.0 | 5.0 | 0.00 | 0.00 | 0.00 | 31 | 1020.6 |
| 20260502123043 | 71 | 281 | 0.0 | 5.0 | 0.00 | 0.00 | 0.00 | 35 | 1022.4 |
| 20260502121549 | 72 | 10 | 2.0 | 6.0 | 0.00 | 0.00 | 0.00 | 34 | 1022.7 |
| 20260502114540 | 71 | 60 | 2.0 | 5.0 | 0.00 | 0.00 | 0.00 | 36 | 1023.0 |
| 20260502113034 | 71 | 31 | 0.0 | 4.0 | 0.00 | 0.00 | 0.00 | 36 | 1023.2 |
| 20260502111532 | 70 | 315 | 1.0 | 7.0 | 0.00 | 0.00 | 0.00 | 37 | 1023.4 |
| 20260502110029 | 70 | 6 | 0.0 | 6.0 | 0.00 | 0.00 | 0.00 | 36 | 1023.5 |
| 20260502104527 | 70 | 338 | 2.0 | 6.0 | 0.00 | 0.00 | 0.00 | 38 | 1023.8 |
| 20260502103029 | 70 | 30 | 1.0 | 6.0 | 0.00 | 0.00 | 0.00 | 39 | 1023.8 |
| 20260502101534 | 70 | 323 | 2.0 | 5.0 | 0.00 | 0.00 | 0.00 | 39 | 1024.0 |
| 20260502091515 | 69 | 15 | 1.0 | 7.0 | 0.00 | 0.00 | 0.00 | 42 | 1024.5 |
| 20260502070104 | 63 | 65 | 0.0 | 4.0 | 0.00 | 0.00 | 0.00 | 53 | 1025.2 |
| 20260502064551 | 61 | 32 | 0.0 | 3.0 | 0.00 | 0.00 | 0.00 | 59 | 1025.2 |
| 20260502063047 | 59 | 40 | 1.0 | 3.0 | 0.00 | 0.00 | 0.00 | 61 | 1025.2 |
| 20260502061544 | 57 | 41 | 1.0 | 2.0 | 0.00 | 0.00 | 0.00 | 66 | 1025.2 |
| 20260502060039 | 54 | 41 | 0.0 | 1.0 | 0.00 | 0.00 | 0.00 | 71 | 1025.2 |
| 20260502054534 | 53 | 13 | 0.0 | 2.0 | 0.00 | 0.00 | 0.00 | 71 | 1025.2 |
| 20260502053029 | 52 | 38 | 0.0 | 1.0 | 0.00 | 0.00 | 0.00 | 73 | 1025.2 |
| 20260502051529 | 50 | 47 | 0.0 | 1.0 | 0.00 | 0.00 | 0.00 | 77 | 1025.1 |
| 20260502050033 | 46 | 49 | 0.0 | 0.0 | 0.00 | 0.00 | 0.00 | 84 | 1025.0 |
| 20260502044519 | 44 | 50 | 0.0 | 1.0 | 0.00 | 0.00 | 0.00 | 85 | 1025.0 |
| 20260502043019 | 43 | 49 | 0.0 | 1.0 | 0.00 | 0.00 | 0.00 | 87 | 1024.8 |
| 20260502041519 | 42 | 49 | 0.0 | 2.0 | 0.00 | 0.00 | 0.00 | 89 | 1024.7 |
| 20260502040018 | 41 | 37 | 0.0 | 1.0 | 0.00 | 0.00 | 0.00 | 91 | 1024.7 |